This is the latest recevied weather packets stored in our database for station/object KC5DAQ-22. If no packets are shown the sender has not sent any weather packets the latest 1 day(s).
| Time | Temp. | Humidity | Pressure | Rain* | Wind** | Luminosity | Snow |
|---|---|---|---|---|---|---|---|
| 1778038742 | 25.56° C | 88% | 1007.3 hPa | 0 mm | 2.24 m/s, 137° | 0 W/m² | - |
| 1778038683 | 25.56° C | 88% | 1007.3 hPa | 0 mm | 2.24 m/s, 120° | 0 W/m² | - |
| 1778038622 | 25.56° C | 88% | 1007.3 hPa | 0 mm | 2.24 m/s, 65° | 0 W/m² | - |
| 1778038563 | 25.56° C | 88% | 1007.2 hPa | 0 mm | 1.79 m/s, 152° | 0 W/m² | - |
| 1778038503 | 25.56° C | 88% | 1007.3 hPa | 0 mm | 2.68 m/s, 151° | 0 W/m² | - |
| 1778038442 | 25.56° C | 88% | 1007.2 hPa | 0 mm | 3.58 m/s, 178° | 0 W/m² | - |
| 1778038381 | 25.56° C | 88% | 1007.2 hPa | 0 mm | 3.13 m/s, 121° | 0 W/m² | - |
| 1778038321 | 25.56° C | 88% | 1007.2 hPa | 0 mm | 2.68 m/s, 137° | 0 W/m² | - |
| 1778038263 | 25.56° C | 88% | 1007.2 hPa | 0 mm | 3.13 m/s, 183° | 0 W/m² | - |
| 1778038202 | 25.56° C | 88% | 1007.1 hPa | 0 mm | 2.68 m/s, 147° | 0 W/m² | - |
| 1778038139 | 25.56° C | 88% | 1007.1 hPa | 0 mm | 2.24 m/s, 186° | 0 W/m² | - |
| 1778038078 | 25.56° C | 88% | 1007.1 hPa | 0 mm | 2.68 m/s, 89° | 0 W/m² | - |
| 1778038016 | 25.56° C | 88% | 1007.1 hPa | 0 mm | 2.68 m/s, 155° | 0 W/m² | - |
| 1778037955 | 25.56° C | 88% | 1007 hPa | 0 mm | 2.68 m/s, 176° | 0 W/m² | - |
| 1778037893 | 25.56° C | 88% | 1007 hPa | 0 mm | 2.68 m/s, 168° | 0 W/m² | - |
| 1778037833 | 25.56° C | 88% | 1007 hPa | 0 mm | 1.79 m/s, 120° | 0 W/m² | - |
| 1778037770 | 25.56° C | 88% | 1007 hPa | 0 mm | 1.79 m/s, 124° | 0 W/m² | - |
| 1778037708 | 25.56° C | 88% | 1007 hPa | 0 mm | 1.79 m/s, 213° | 0 W/m² | - |
| 1778037648 | 25.56° C | 88% | 1007 hPa | 0 mm | 2.24 m/s, 120° | 0 W/m² | - |
| 1778037586 | 25.56° C | 88% | 1007 hPa | 0 mm | 2.68 m/s, 169° | 0 W/m² | - |
| 1778037525 | 25.56° C | 88% | 1006.9 hPa | 0 mm | 2.68 m/s, 83° | 0 W/m² | - |
| 1778037463 | 25.56° C | 88% | 1006.9 hPa | 0 mm | 2.24 m/s, 195° | 0 W/m² | - |
| 1778037402 | 25.56° C | 88% | 1007 hPa | 0 mm | 2.68 m/s, 243° | 0 W/m² | - |
| 1778037338 | 25.56° C | 87% | 1006.9 hPa | 0 mm | 2.68 m/s, 173° | 0 W/m² | - |
| 1778037278 | 25.56° C | 87% | 1006.9 hPa | 0 mm | 2.68 m/s, 178° | 0 W/m² | - |
* Rain latest hour (hover to see other rain measurements)
** Current wind speed in m/s (hover to see current wind gust speed)